Location: Ladholz
(46.5333°N, 7.6000°E)
Time: 02:23:13
(UTC+00:00)

Daily predictions for brighter satellites

Satellite Brightness Start Highest point End
(mag) Time Altitude Azimuth Time Altitude Azimuth Time Altitude Azimuth
CENTAUR R/B 4.3 02:14:21 36° E 02:14:21 36° E 02:19:40 10° ESE
Cosmos 2263 Rocket 4.0 03:01:26 27° ENE 03:01:26 27° ENE 03:04:20 10° NE
SJ 16-02 4.2 03:08:47 14° ENE 03:08:47 14° ENE 03:10:02 10° NE
CZ-4C R/B 4.2 03:25:49 16° SE 03:28:03 21° ESE 03:32:05 10° ENE
BREEZE-M DEB (TANK) 4.5 03:30:33 77° N 03:30:38 77° N 03:35:05 10° E
ATLAS 3B R/B 3.6 03:30:35 38° N 03:32:06 42° NE 03:38:49 10° ESE
Cosmos 1943 4.2 03:36:00 40° SE 03:36:00 40° SE 03:39:34 10° SSE
Lacrosse 4 Rocket 3.7 03:38:11 22° ESE 03:38:11 22° ESE 03:39:55 10° SE
ALOS 3.2 03:49:47 10° NNE 03:53:16 43° NE 03:53:16 43° NE
NOSS 3-2 (C) 4.0 04:00:07 59° WSW 04:00:21 59° WSW 04:08:42 10° SSE
NOSS 3-4 (A) 3.3 04:00:50 72° SSW 04:01:28 82° SE 04:07:48 10° NE
NOSS 3-4 (C) 3.3 04:00:54 70° SSW 04:01:36 82° SE 04:07:56 10° NE
CENTAUR R/B 3.2 04:01:35 57° W 04:02:21 59° WSW 04:10:59 10° SSE
ARGOS Delta rocket 4.2 04:00:19 10° NNE 04:04:43 63° NNE 04:04:43 63° NNE
Cosmos 158 Rocket 3.9 04:10:38 71° NE 04:10:55 74° ENE 04:15:53 10° SSE
SL-4 R/B 3.5 04:15:02 29° NE 04:15:02 29° NE 04:17:12 10° ENE
Cosmos 1151 Rocket 3.8 04:17:01 43° SSE 04:17:01 43° SSE 04:19:57 10° S
Cosmos 1782 3.6 04:16:34 47° NE 04:17:06 51° ENE 04:21:01 10° SSE
SKYMED 2 4.3 04:13:15 10° SSE 04:17:27 51° ENE 04:19:24 28° N
Cosmos 1844 Rocket 4.2 04:12:29 10° S 04:17:34 35° ESE 04:22:39 10° NE
ATLAS 2AS CENTAUR R/B 3.0 04:15:30 22° SW 04:21:06 87° SE 04:29:00 10° NE
ERS-2 4.2 04:18:09 10° SSE 04:19:17 19° SSE 04:19:17 19° SSE
Cosmos 1680 Rocket 3.7 04:20:02 37° N 04:22:10 73° ENE 04:27:28 10° SSE
ATLAS 5 CENTAUR R/B 3.7 04:31:18 19° N 04:31:18 19° N 04:32:12 10° NNE
Atlas Centaur 2 4.4 04:26:41 13° SSW 04:29:29 16° S 04:32:58 10° SE
RESURS DK-1 3.4 04:27:40 10° S 04:31:39 46° ESE 04:35:39 10° NE
CRYOSAT 2 4.3 04:27:37 10° S 04:32:28 82° E 04:37:22 10° N
ATLAS CENTAUR R/B 1.9 04:32:06 44° NNE 04:32:35 46° NE 04:36:21 10° ESE
Lacrosse 5 1.7 04:32:02 56° SW 04:33:09 89° NW 04:38:16 10° NE
ADEOS 3.4 04:29:00 10° NNE 04:34:14 75° WNW 04:39:27 10° SSW
Cosmos 1328 Rocket 3.4 04:35:40 71° W 04:35:41 71° W 04:40:05 10° S
Cosmos 2112 Rocket 4.0 04:38:53 27° NNW 04:41:57 90° ENE 04:47:18 10° SSE
Cosmos 2263 Rocket 2.7 04:43:11 39° NW 04:43:11 39° NW 04:48:22 10° NNE
Gbstr 26 Del rocket 2.5 04:43:33 77° SW 04:43:39 78° SSW 04:47:32 10° ESE
SJ 16-02 1.6 04:45:52 47° NW 04:45:52 47° NW 04:49:36 10° N
Cosmos 1898 Rocket 3.6 04:47:26 10° SSW 04:52:45 83° ESE 04:58:07 10° NNE
Meteor 1-26 Rocket 4.3 04:48:59 17° NNW 04:53:17 53° W 04:58:42 10° S
FALCON 9 DEB 2.7 04:56:35 82° WNW 04:56:41 85° NNW 04:59:54 10° ENE
FALCON 9 DEB 2.7 04:56:45 80° NW 04:56:47 80° NNW 05:00:01 10° ENE
FENGYUN 3A 4.0 04:53:57 10° N 04:59:01 42° WNW 05:04:04 10° SW
Envisat 4.4 04:54:40 10° NNE 04:59:27 40° E 05:04:12 10° SSE
Cosmos 1743 Rocket 3.8 04:55:46 10° S 05:00:11 72° E 05:04:40 10° NNE
Cosmos 1408 Rocket 3.6 04:57:49 10° SSW 05:02:12 58° W 05:06:37 10° N
H-2A R/B 4.4 04:59:27 10° NE 05:02:52 29° E 05:06:13 10° SSE
Cosmos 2082 Rocket 4.5 05:00:03 10° N 05:03:46 17° NE 05:07:28 10° E
Cosmos 2181 Rocket 4.2 04:58:29 10° NNW 05:04:22 46° W 05:10:09 10° SSW
COSMO-SKYMED 1 2.7 05:01:15 10° S 05:05:29 51° W 05:08:00 23° NNW
USA 307 4.1 05:05:08 25° NNW 05:06:37 31° N 05:10:30 10° ENE
Cosmos 1937 Rocket 3.5 05:04:41 10° SSW 05:09:49 85° ESE 05:15:03 10° NNE
USA 308 4.1 05:11:14 23° NNW 05:13:01 32° N 05:16:54 10° ENE
Lacrosse 4 Rocket 3.0 05:14:32 20° WSW 05:14:32 20° WSW 05:17:14 10° SSW
Meteor 2-3 Rocket 4.2 05:09:04 10° SW 05:14:24 39° WNW 05:19:49 10° N
Cosmos 1833 Rocket 4.3 05:09:39 10° N 05:14:33 29° NE 05:19:24 10° ESE
CZ-4C R/B 2.0 05:11:06 12° SW 05:15:45 66° NW 05:21:48 10° NE
MOS 1 Rocket 3.5 05:11:02 10° SSE 05:15:50 83° ENE 05:21:00 10° N
Cosmos 2154 Rocket 4.2 05:09:49 10° S 05:16:01 78° E 05:22:18 10° N
CZ-4B R/B 3.1 05:13:19 10° N 05:17:45 57° WNW 05:22:03 10° SSW
Cosmos 1689 Rocket 2.7 05:15:52 10° SSW 05:18:12 34° WSW 05:18:12 34° WSW
Meteor 1-27 Rocket 4.4 05:13:09 10° N 05:18:51 59° ENE 05:24:37 10° SSE
Cosmos 1805 Rocket 4.3 05:15:03 10° S 05:19:23 57° E 05:23:47 10° NNE
FALCON 9 DEB 3.0 05:18:33 37° W 05:19:33 58° NNW 05:22:45 10° NE
Meteor 1-10 Rocket 4.1 05:15:18 10° NNW 05:20:54 86° W 05:26:31 10° S
SAR-Lupe-4 4.5 05:19:18 10° SSW 05:22:23 27° W 05:22:38 27° W
ATLAS 3B R/B 2.9 05:17:51 18° NW 05:23:04 57° WSW 05:30:05 10° SSE
Aureole 2 Rocket 2.0 05:21:15 10° SSW 05:23:45 64° ESE 05:26:18 10° NNE
COSMOS 2406 4.4 05:19:22 10° NNW 05:24:48 41° NE 05:30:13 10° SE
Cosmos 1862 3.2 05:22:55 10° SSW 05:26:57 68° W 05:31:01 10° N
Genesis I 3.2 05:24:54 11° SW 05:28:28 54° NW 05:32:15 10° NNE
YAOGAN 6 2.9 05:25:01 10° NNE 05:28:31 67° ESE 05:31:58 10° S
deb Chang Zheng 4 4.4 05:27:42 10° N 05:31:23 27° WNW 05:35:03 10° WSW
ALOS 3.5 05:28:05 10° NNW 05:31:26 20° WNW 05:31:45 20° WNW
Cosmos 2278 Rocket 4.5 05:28:21 10° SSE 05:33:03 28° ESE 05:37:48 10° NE
Cosmos 858 Rocket 4.5 05:29:00 10° SSW 05:34:10 63° WNW 05:39:24 10° NNE
Cosmos 2327 Rocket 4.4 05:29:21 10° SSW 05:35:27 75° W 05:41:34 10° N
Cosmos 990 Rocket 4.4 05:30:41 10° SW 05:35:36 40° WNW 05:40:35 10° N
Cosmos 2074 Rocket 4.1 05:30:57 10° SSW 05:36:56 50° WNW 05:42:58 10° N
PSLV R/B 3.6 05:33:28 10° N 05:37:21 74° WNW 05:41:07 10° SSW
ASTRO F (AKARI) 4.4 05:36:17 10° N 05:39:18 47° WNW 05:42:19 10° SSW
Meteor 1-31 Rocket 4.3 05:38:35 10° NNW 05:40:29 16° NW 05:40:29 16° NW
USA 305 3.9 05:38:55 15° NW 05:42:01 37° NNE 05:46:02 10° E
BREEZE M DEB (TANK) 3.2 05:34:48 10° SW 05:42:15 57° SSE 05:44:57 10° ENE
Cosmos 405 Rocket 2.8 05:39:14 10° SSW 05:42:49 48° WNW 05:46:29 10° N
SL-24 DEB 4.3 05:38:14 10° S 05:43:00 81° W 05:47:49 10° N
EO 1 Delta rocket 4.3 05:42:02 10° SSW 05:46:49 42° W 05:51:14 10° NNW
Cosmos 1812 3.2 05:43:41 10° NNW 05:47:15 38° W 05:50:49 10° SSW
Cosmos 1295 Rocket 4.4 05:42:20 10° SSW 05:48:24 75° W 05:54:31 10° N
Cosmos 2228 Rocket 3.5 05:45:37 10° NNW 05:49:47 41° W 05:53:54 10° SSW
USA 306 3.8 05:47:01 13° NW 05:50:29 39° NNE 05:54:33 10° E
Cosmos 1633 Rocket 4.1 05:48:41 10° S 05:52:58 51° E 05:57:16 10° NNE
NOSS 3-4 (A) 4.4 05:48:19 12° W 05:53:06 29° NNW 05:58:43 10° NNE
NOSS 3-4 (C) 4.3 05:48:24 12° W 05:53:13 29° NNW 05:58:51 10° NNE
SL-4 R/B 2.5 05:50:37 14° WNW 05:53:40 41° N 05:57:07 10° E
Cosmos 2184 Rocket 4.4 05:48:42 10° SW 05:54:34 39° WNW 06:00:32 10° N
USA 234 3.6 05:51:32 10° NE 05:58:05 73° SE 06:04:37 10° SW
Cosmos 1356 3.5 05:55:04 10° S 05:58:27 79° E 06:01:53 10° NNE
FALCON 9 DEB 3.8 05:56:58 13° W 05:59:32 34° NNW 06:02:31 10° NE
Cosmos 1844 Rocket 3.1 05:56:03 10° SW 06:01:22 41° NW 06:06:44 10° NNE
FALCON 9 DEB 4.0 05:59:52 11° NW 06:02:59 39° NNE 06:06:16 10° E
Cosmos 1707 Rocket 3.5 06:02:33 10° NNW 06:06:54 72° W 06:11:11 10° S
EXPRESS MD2 4.2 06:03:36 10° WNW 06:07:35 84° SSW 06:16:02 10° ESE
MOS 1-B 4.4 06:02:47 10° N 06:08:35 68° WNW 06:14:19 10° SSW
COSMOS 2455 2.8 06:03:26 10° SW 06:09:28 74° NW 06:15:32 10° NNE
RESURS DK-1 3.6 06:06:39 10° W 06:09:54 22° NW 06:13:11 10° N
BREEZE-M (TANK) 3.9 06:04:24 10° SW 06:10:53 42° SSE 06:13:23 10° E
ATLAS CENTAUR R/B 2.8 06:08:27 10° WNW 06:11:11 19° WSW 06:13:58 10° SSW
BREEZE-M DEB 4.3 06:03:29 10° WNW 06:11:39 36° SW 06:14:38 10° SSE
NOAA 6 4.1 06:06:42 10° N 06:11:42 54° WNW 06:16:39 10° SW
ATLAS 2AS CENTAUR R/B 3.7 06:05:51 10° W 06:13:00 35° NNW 06:19:59 10° NNE
ERBS 4.5 06:11:54 10° NNW 06:13:39 14° N 06:15:25 10° NNE
H-2A R/B 3.9 06:11:07 10° NNW 06:14:14 23° WNW 06:17:18 10° WSW
Cosmos 1844 4.1 06:10:06 10° WSW 06:15:17 39° NW 06:20:32 10° NNE
USA 290 4.5 06:13:03 10° N 06:15:44 23° ENE 06:18:24 10° ESE
Lacrosse 5 2.8 06:12:08 10° W 06:16:41 32° NNW 06:21:13 10° NE
CZ-4B DEB 4.4 06:11:34 10° N 06:16:49 50° WNW 06:22:04 10° SW
Atlas Centaur 2 4.5 06:15:09 10° SW 06:17:21 12° SSW 06:19:24 10° S
Cosmos 1437 Rocket 3.6 06:14:07 10° NNW 06:17:23 28° W 06:20:38 10° SSW
Cosmos 372 Rocket 4.1 06:13:40 10° SW 06:18:37 50° WNW 06:23:35 10° NNE
Okean O Rocket 1.6 06:16:04 10° N 06:20:30 69° WNW 06:24:55 10° SSW
Geosat 4.1 06:16:31 10° SSE 06:21:33 88° WSW 06:26:37 10° NNW
